Regional Weather Roundup
Issued by NWS

Home | Current Version | Previous Version | Graphics & Text | Print | Product List | Glossary On
Versions: 1 2 3 4 5 6 7 8 9 10 11 12 13 14 15 16 17 18 19 20 21 22 23 24 25 26 27 28 29 30 31 32 33 34 35 36 37 38 39 40 41 42 43 44 45 46 47 48 49 50
000
ASUS43 KIND 272300
RWRIN

WEATHER ROUNDUP FOR INDIANA
NATIONAL WEATHER SERVICE INDIANAPOLIS IN
700 PM EDT SAT MAY 27 2017

NOTE: "FAIR" INDICATES FEW OR NO CLOUDS BELOW 12,000 FEET WITH NO
SIGNIFICANT WEATHER AND/OR OBSTRUCTIONS TO VISIBILITY.

* - STATION DOES NOT REPORT WEATHER SUCH AS PRECIPITATION OR FOG.

+ - STATION NOT QUALITY CONTROLLED BY THE NATIONAL WEATHER SERVICE.
    USE DATA WITH CAUTION...ESPECIALLY DEWPOINT AND RELATIVE
    HUMIDITY OBSERVATIONS.

INZ001>003-010>013-019-020-280000-
NORTHWEST INDIANA

CITY           SKY/WX    TMP DP  RH WIND       PRES   REMARKS
GARY /AIRPORT/ MOSUNNY   64  55  72 NE9       29.89F
MICHIGAN CITY+ SUNNY     66  55  68 N6        29.87F
MONTICELLO +   CLOUDY    73  62  68 E3        29.85F
RENSSELAER +   MOSUNNY   73  59  60 E6        29.86F

$$

LMZ046-743>745-280000-
SOUTHERN LAKE MICHIGAN

STATION/POSITION TIME  TEMP    WIND        PRES    WAVE
                       AIR SEA DIR/SP/G            HT
                 (UTC) (F)     (DEG/KT/KT) (MB)    (FT)
BURNS HARBOR     2240   59      60/  8/  9 1012.2F
MICHIGAN CITY    2230   56      20/  4/  4   N/A
5NW MICH CITY    2250   56 57   60/  4/  6   N/A     1

$$

INZ004-005-014>016-021>024-280000-
NORTH CENTRAL INDIANA

CITY           SKY/WX    TMP DP  RH WIND       PRES   REMARKS
GOSHEN         PTSUNNY   73  60  63 E3        29.86S
PERU/GRISSOM   PTSUNNY   72  62  69 NW5       29.85R
SOUTH BEND     PTSUNNY   72  61  68 SW5       29.87R

$$

INZ006>009-017-018-025>027-280000-
NORTHEAST INDIANA

CITY           SKY/WX    TMP DP  RH WIND       PRES   REMARKS
ANGOLA *+      PTSUNNY   72  63  73 E7        29.87F
FORT WAYNE     PTSUNNY   74  63  68 NE9       29.86S
KENDALLVILLE + CLOUDY    73  61  66 E6        29.88S

$$

INZ028-029-035-036-043>045-051>053-280000-
WEST CENTRAL INDIANA

CITY           SKY/WX    TMP DP  RH WIND       PRES   REMARKS
CRAWFORDSVL +  CLOUDY   -22 -28  75 N3        29.86S
GREENCASTLE +  MOSUNNY   75  61  60 N6        29.85F
LAFAYETTE      CLOUDY    73  63  70 NW3       29.85F
TERRE HAUTE    MOSUNNY   77  63  61 N7        29.83F

$$

INZ030>032-037>040-046>048-054>057-064-065-280000-
CENTRAL INDIANA

CITY           SKY/WX    TMP DP  RH WIND       PRES   REMARKS
COLUMBUS       MOSUNNY   82  55  39 W7        29.82S
GREENWOOD *+   MOSUNNY   78  63  59 NW6       29.85S
INDIANAPOLIS   CLOUDY    76  63  64 NW8       29.84S
-EAGLE CREEK   CLOUDY    76  62  62 N6        29.85R
KOKOMO +       CLOUDY    73  62  68 N3        29.88R
SHELBYVILLE    CLOUDY    81  62  52 N9        29.82S

$$

INZ033-034-041-042-049-050-058-059-280000-
EAST CENTRAL INDIANA

CITY           SKY/WX    TMP DP  RH WIND       PRES   REMARKS
MUNCIE         PTSUNNY   77  64  64 N8        29.85S
RICHMOND +     MOSUNNY   77  63  61 NW8       29.84F

$$

INZ060-061-067>069-081>083-085>088-280000-
SOUTHWEST INDIANA

CITY           SKY/WX    TMP DP  RH WIND       PRES   REMARKS
EVANSVILLE     CLOUDY    79  63  57 SW12      29.77F
HUNTINGBURG *+ CLOUDY    64  60  87 E8        29.83F

$$

INZ062-063-066-070>080-084-089>092-280000-
SOUTH CENTRAL AND SOUTHEAST INDIANA

CITY           SKY/WX    TMP DP  RH WIND       PRES   REMARKS
BLOOMINGTON    MOSUNNY   79  62  56 CALM      29.84S
MADISON *+     CLOUDY    79  70  73 SE5       29.85S
SEYMOUR +      PTSUNNY   82  66  57 W7        29.81F

$$





USA.gov is the U.S. government's official web portal to all federal, state and local government web resources and services.